MUOS-5                  
1 41622U 16041A   19261.02827149 -.00000147  00000-0  00000+0 0  9991
2 41622   7.8210 310.0817 0207670 211.5339 100.2263  1.00272351 12357
ATLAS 5 CENTAUR R/B     
1 41623U 16041B   19260.45205776 -.00000122  00000-0  00000+0 0  9997
2 41623  18.7396 102.0405 6077912 219.7168  74.5801  2.09537087 24732